#timestamp,LO_Frequency,Hit,StdDev 
1514318415.2,286046989.2,P
1514318435.9,286046987.7,Y
1514318455.7,286046993.8,P
1514318475.6,286046994.3,P
1514318495.4,286046993.5,P
1514318515.2,286046993.8,Y
1514318535.1,286046999.9,P
1514318536.0,286046999.9,N
1514318555.8,286047001.2,N
1514318575.6,286047001.1,N
1514318595.5,286047001.1,N
1514318615.3,286046998.8,N
1514318635.1,286046998.7,N
1514318655.8,286046998.8,N
1514318675.7,286047000.8,N
1514318695.5,286046998.2,N
1514318715.3,286046999.5,N
1514318735.2,286047000.1,N
1514318755.9,286046998.2,N
1514318775.7,286047002.0,N
1514318795.6,286047002.2,N
1514318815.4,286047005.5,N
1514318835.2,286047003.0,N
1514318855.1,286047003.6,N
1514318856.0,286047003.6,N
1514318875.8,286047002.6,N
1514318895.6,286047002.4,N
1514318915.5,286047000.4,N
1514318935.3,286046998.4,N
1514318955.1,286046999.6,N
1514318975.9,286046995.8,N
1514318995.7,286046994.9,N
1514319015.5,286046994.2,N
1514319035.3,286046994.5,N
1514319055.2,286046995.8,N
1514319075.0,286046994.8,N
1514319075.9,286046994.8,N
1514319095.7,286046995.2,N
1514319115.6,286046993.4,N
1514319135.4,286046993.5,N
1514319155.2,286047001.1,N
1514319175.1,286046999.4,N
1514319176.0,286046999.4,N
1514319195.8,286046995.0,N
1514319215.6,286046995.7,N
1514319235.5,286047001.1,N
1514319255.3,286047001.2,N
1514319275.1,286046999.3,N
1514319295.9,286046997.2,N
1514319315.7,286047000.1,N
1514319335.5,286047000.0,N
1514319355.4,286047001.1,N
1514319375.2,286047002.1,N
1514319395.0,286047002.5,N
1514319395.9,286047002.5,N
1514319415.8,286046999.3,N
1514319435.6,286046998.8,N
1514319455.4,286046998.5,N
1514319475.2,286046999.4,N
1514319495.1,286047000.2,N
1514319496.0,286047000.2,N
1514319515.8,286046999.8,N
1514319535.7,286047010.8,Y
1514319555.5,286047007.0,P
1514319575.3,286047004.2,N
1514319595.1,286047005.3,N
1514319615.9,286047008.2,N
1514319635.7,286047009.0,N
1514319655.5,286047006.6,N
1514319675.4,286047011.9,Y
1514319695.2,286047006.3,P
1514319715.0,286047003.1,P
1514319715.9,286047003.1,N
1514319735.8,286047006.3,Y
1514319755.6,286047001.5,P
1514319775.4,286046999.8,N
1514319795.3,286047004.4,N
1514319815.1,286047002.8,N
1514319835.8,286047000.7,N
1514319855.7,286046993.4,Y
1514319875.5,286046992.2,P
1514319895.3,286046993.8,N
1514319915.2,286046999.1,N
1514319935.9,286046997.8,N
1514319955.7,286046999.1,N
1514319975.6,286046999.8,N
1514319995.4,286047001.5,N
1514320015.2,286047001.7,N
1514320035.1,286047004.0,N
1514320036.0,286047004.0,N
1514320055.8,286047003.1,N
1514320075.6,286047005.0,N
1514320095.5,286047004.6,N
1514320115.3,286047007.1,N
1514320135.1,286047008.9,N
1514320155.8,286047010.1,N
1514320175.7,286047012.4,N
1514320195.5,286047009.4,N
1514320215.3,286047014.8,N
1514320235.2,286047012.8,N
1514320255.9,286047017.2,N
1514320275.7,286047015.3,N
1514320295.6,286047014.9,N
1514320315.4,286047018.4,N
1514320335.2,286047014.5,N
1514320355.1,286047017.6,N
1514320356.0,286047017.6,N
1514320375.8,286047017.7,N
1514320395.6,286047017.3,N
1514320415.5,286047019.7,N
1514320435.3,286047021.4,N
1514320455.1,286047023.0,Y
1514320475.9,286047009.7,P
1514320495.7,286047009.9,P
1514320515.5,286047012.4,P
1514320535.4,286047012.2,Y
1514320555.2,286047004.2,P
1514320575.0,286047006.1,N
1514320575.9,286047006.1,N
1514320595.8,286047006.4,N
1514320615.6,286047011.1,Y
1514320635.4,286047008.8,P
1514320655.3,286047012.3,P
1514320675.1,286047015.0,P
1514320676.0,286047015.0,Y
1514320695.8,286047003.0,P
1514320715.7,286047007.5,N
1514320735.5,286047006.6,N
1514320755.3,286047007.3,N
1514320775.1,286047005.2,N
1514320795.9,286047000.1,N
1514320815.7,286046994.9,N
1514320835.5,286046997.2,N
1514320855.4,286046995.0,N
1514320875.2,286046995.7,N
1514320895.0,286046999.0,N
1514320895.9,286046999.0,N
1514320915.8,286046996.8,N
1514320935.6,286046998.4,N
1514320955.4,286046999.4,N
1514320975.3,286047001.2,N
1514320995.1,286047001.6,N
1514320996.0,286047001.6,N
1514321015.8,286047005.5,N
1514321035.7,286047010.8,N
1514321055.5,286047010.1,N
1514321075.3,286047013.8,N
1514321095.2,286047011.0,N
1514321115.9,286047009.7,N
1514321135.7,286047006.7,N
1514321155.5,286047003.3,N
1514321175.4,286047003.6,N
1514321195.2,286047000.0,N
1514321215.0,286046997.7,N
1514321215.9,286046997.7,N
1514321235.8,286046994.3,N
1514321255.6,286046992.5,N
1514321275.4,286046991.3,N
1514321295.3,286046993.1,N
1514321315.1,286046988.5,N
1514321316.0,286046988.5,N
1514321335.8,286046989.6,N
1514321355.7,286046989.3,N
1514321375.5,286046991.4,N
1514321395.3,286046993.1,N
1514321415.2,286046992.4,N
1514321435.9,286046992.7,N
1514321455.7,286046990.5,N
1514321475.6,286046990.2,N
1514321495.4,286046991.7,N
1514321515.2,286046992.5,N
1514321535.0,286046988.7,N
1514321535.9,286046988.7,N
1514321555.8,286046992.9,N
1514321575.6,286046996.1,N
1514321595.4,286046994.0,N
1514321615.3,286046993.8,N
1514321635.1,286046995.3,N
1514321655.8,286046998.4,N
1514321675.7,286047006.0,N
1514321695.5,286047004.8,N
1514321715.3,286047004.5,N
1514321735.2,286047004.1,N
1514321755.9,286047005.1,N
1514321775.7,286047006.9,N
1514321795.6,286047007.6,N
1514321815.4,286047009.2,N
1514321835.2,286047012.4,N
1514321855.0,286047011.3,N
1514321855.9,286047011.3,N
1514321875.8,286047008.3,N
1514321895.6,286047007.9,N
1514321915.4,286047007.4,N
1514321935.3,286047005.7,N
1514321955.1,286047007.3,N
1514321975.8,286047005.6,N
1514321995.7,286047003.6,N
